SL-14 DEB

基本信息
目录编号:
25454
目录名称:
SL-14 DEB
国际标识:
1987-068CC
轨道中心:
EARTH
物体状态:
在轨
发射日期:
1987-08-18 UTC
轨道信息
数据来源: 国际轨道数据
星历时间: 2026-09-05T01:50:25+0800
半长轴: 6943.583km
偏心率: 0.0014108
轨道倾角: 82.136°
近地点辐角: 308.581°
升交点赤经: 351.872°
平近点角: 51.414°
近地点: 555.649km
远地点: 575.243km
周期: 95.970分钟
每日圈数: 15.004701
详细信息
发射场:
PKMTR
轨道高度:
LEO
数据来源:
AOE Integration Group
参考系:
TEME
时间系统:
UTC
历元类型:
SGP4
2D轨道图
3D轨道图
轨道高度分析图
轨道倾角分析图
轨道综合分析图
查看轨道综合分析图